Wetbulb
55.53 55.48 55.53 55.60 55.97 55.65 55.61 55.78 56.09 56.26 56.39 56.63 56.92 57.42 57.45 58.06 57.71 55.60 52.43 55.29 57.65 65.02 66.60 63.21 63.41 61.82 60.85 59.30 60.45 60.11 48.71 47.40 49.06 50.07 52.02 54.06 52.06 55.75 57.75 55.06 55.96 55.49 54.51 58.27 59.70
55.77 55.62 55.51 55.38 55.43 55.74 55.35 55.39 55.54 55.83 55.96 56.16 56.17 56.39 57.12 57.82 53.53 51.25 58.44 64.22 64.50 67.14 60.30 60.08 58.72 59.67 56.92 57.43 58.28 55.01 49.33 50.10 54.49 54.67 53.49 53.48 52.45 53.07 54.57 54.32 54.88 55.20 57.30 59.68 59.41
55.67 55.61 56.10 55.88 55.37 55.66 55.46 55.06 55.27 55.47 55.48 55.55 55.57 55.96 56.85 56.84 51.19 49.55 68.15 65.94 65.76 67.12 58.00 57.88 60.35 59.38 55.58 57.83 57.03 55.50 50.48 53.91 54.95 56.57 56.42 54.84 52.08 53.50 52.64 52.08 55.11 53.27 55.14 56.52 56.80
55.44 55.99 55.79 56.15 55.41 55.82 55.52 54.82 54.94 55.10 55.38 55.30 55.17 55.72 56.60 54.25 39.82 55.25 68.40 68.27 67.49 64.11 57.58 55.45 54.97 54.08 54.35 53.88 57.32 52.78 55.08 55.53 55.64 56.83 56.02 53.61 54.00 52.97 53.43 54.03 57.17 56.33 56.66 55.81 55.11
54.34 54.62 55.21 56.32 56.11 55.75 55.41 55.53 54.89 54.53 54.70 54.76 55.10 55.45 52.94 47.92 47.64 55.87 68.42 67.92 65.81 61.56 55.57 53.24 50.64 51.07 49.69 54.78 55.78 53.91 55.15 56.40 56.89 57.06 54.39 54.71 53.40 53.70 53.28 56.62 58.16 56.22 55.78 55.19 54.47
54.03 53.85 54.03 54.92 56.09 55.79 55.40 55.11 55.07 54.93 55.12 54.66 55.01 55.35 50.79 41.57 52.39 54.50 54.15 58.39 59.68 56.81 54.76 53.73 51.49 52.78 51.19 53.02 53.34 55.58 55.11 55.44 56.56 56.09 54.25 53.34 54.27 54.34 54.51 57.25 56.31 54.70 53.79 53.97 53.94
53.32 53.67 53.64 53.78 54.54 55.29 55.71 55.06 54.52 54.84 55.14 55.16 55.68 53.20 46.85 44.96 54.28 55.16 53.74 51.97 56.92 56.16 53.11 54.18 54.67 52.34 51.78 49.49 52.94 52.80 50.27 52.36 53.88 54.48 52.83 55.00 51.63 51.70 55.21 55.74 54.77 53.86 54.00 54.00 54.64
51.91 52.64 53.17 53.16 53.36 54.07 54.64 54.92 54.61 55.05 55.23 55.77 55.98 50.64 41.97 51.67 54.10 52.27 53.02 52.01 53.81 57.70 56.13 56.29 54.97 51.89 50.30 51.51 51.19 48.71 49.34 46.32 51.39 53.08 54.11 52.59 47.23 52.64 55.27 54.24 53.87 55.01 55.09 55.12 54.75
52.82 51.97 52.05 52.66 53.12 53.41 53.94 53.81 53.80 54.16 54.98 55.63 51.29 46.77 40.02 53.65 49.98 52.92 54.33 51.33 52.32 53.54 58.10 58.65 54.88 50.02 50.18 46.67 44.54 46.33 42.01 44.63 48.51 53.50 52.89 51.37 48.68 53.35 55.21 54.14 53.15 54.47 54.84 55.48 54.53
53.48 52.90 52.01 51.80 52.41 53.29 53.21 53.07 52.79 53.83 53.37 54.30 52.17 43.35 47.18 47.28 50.07 53.37 53.81 53.84 51.82 51.89 51.46 49.90 48.36 45.47 45.58 44.81 38.77 41.22 42.68 46.33 46.65 51.07 51.52 50.27 50.76 52.63 54.37 53.69 53.17 53.47 54.60 55.10 55.88
53.40 53.38 52.59 51.88 51.69 52.26 50.81 46.82 45.23 46.38 48.47 45.83 46.05 44.31 49.25 53.38 56.55 53.65 55.07 52.52 51.74 49.24 43.95 49.66 42.63 41.41 45.17 46.27 47.71 46.35 45.76 45.64 49.31 52.16 50.60 50.54 50.76 52.14 53.65 53.56 52.35 52.76 53.91 54.77 54.95
52.96 53.19 52.88 52.47 51.42 51.82 49.16 42.23 45.29 46.46 40.83 49.10 48.98 48.94 49.88 51.64 47.85 51.54 54.27 49.21 47.00 43.24 45.58 43.56 40.68 45.44 49.41 48.54 47.58 47.25 44.89 44.72 48.38 51.33 50.98 50.65 49.91 51.96 54.18 52.72 52.73 52.98 52.83 52.36 54.46
52.76 53.25 53.11 52.45 51.70 48.06 44.99 44.69 49.53 48.18 40.63 45.40 48.96 48.55 49.94 51.95 47.60 48.72 52.20 49.32 45.94 43.17 43.37 40.68 43.46 47.48 48.89 47.51 46.54 46.83 45.10 44.84 45.34 49.72 50.77 48.39 45.64 48.59 52.78 53.16 53.85 54.06 53.62 54.74 54.65
52.50 52.64 53.07 52.46 46.27 45.75 45.55 51.48 51.60 50.20 35.67 38.35 43.86 46.81 49.54 51.68 47.97 53.60 53.57 49.80 46.75 43.18 43.93 42.44 46.08 46.17 46.62 46.27 47.47 43.53 49.25 48.32 47.47 46.44 40.80 48.55 37.29 45.16 49.06 49.80 52.02 53.12 52.19 53.95 54.80
52.44 52.37 52.58 51.70 43.53 40.95 46.80 49.21 51.51 49.77 21.93 42.39 43.58 51.86 49.10 48.08 50.53 50.72 54.17 50.50 44.59 44.96 44.74 41.94 43.69 43.96 43.71 46.63 48.90 46.08 49.97 48.47 48.38 46.07 43.84 43.84 39.01 42.62 48.07 47.93 49.91 49.81 52.09 54.29 55.29
52.15 52.23 52.15 49.31 47.32 45.02 47.46 49.85 47.85 32.93 23.09 39.53 47.04 45.14 44.20 46.98 49.00 51.93 49.82 51.61 49.44 45.94 46.06 44.93 48.29 46.35 45.21 47.51 49.85 50.91 48.51 48.12 47.78 45.57 36.35 42.71 41.50 42.15 45.16 48.20 48.59 50.02 51.75 55.13 55.10
51.67 51.79 50.84 50.20 44.32 49.00 48.74 45.00 32.15 27.00 39.98 38.88 42.27 45.00 44.10 43.21 45.55 47.95 45.68 44.10 41.75 39.14 40.03 44.27 44.40 47.25 48.28 45.27 47.91 48.97 43.95 37.44 33.82 34.05 33.36 44.53 41.62 43.31 48.21 50.90 49.94 51.60 53.66 54.45 55.52
51.57 51.25 49.70 49.59 49.54 49.57 45.97 37.30 25.87 33.39 34.07 41.40 40.49 41.81 40.08 44.73 43.80 45.46 44.89 41.42 44.75 43.66 39.94 38.58 37.27 44.41 47.64 45.58 44.78 45.14 44.53 38.07 30.81 32.27 36.45 45.18 39.99 44.59 51.65 52.63 52.23 54.85 55.08 55.34 54.70
50.49 47.21 46.43 48.08 49.84 48.75 39.87 29.17 27.76 33.05 38.27 38.52 38.37 36.33 39.19 42.10 44.29 44.12 43.53 42.42 44.21 44.66 39.14 38.84 39.52 47.43 47.85 48.10 47.61 45.01 42.95 46.36 40.03 40.53 36.72 40.24 44.94 50.21 51.27 49.65 51.52 54.37 54.68 53.19 53.84
46.84 45.37 44.04 49.07 50.02 45.16 35.09 30.12 32.42 38.64 39.61 39.02 32.12 36.48 32.47 36.21 38.09 40.30 42.64 45.97 44.94 46.66 46.92 42.95 37.70 46.16 47.20 48.13 48.01 46.80 48.89 41.16 38.41 32.65 29.76 38.65 40.86 41.81 46.06 47.60 52.52 53.29 52.87 53.35 53.91
45.74 40.22 45.32 48.76 48.07 39.74 30.51 31.20 35.57 39.98 39.79 36.22 34.40 33.55 34.95 34.51 37.55 37.57 40.85 46.12 48.02 46.62 46.77 45.66 42.16 43.25 46.37 43.99 42.93 44.56 44.89 42.98 41.61 39.12 33.18 32.29 37.66 47.35 47.70 52.09 51.74 53.57 54.21 53.92 53.98
42.57 34.73 47.59 48.43 36.64 35.21 33.13 34.46 39.27 38.24 40.89 38.53 38.16 36.77 34.87 36.88 35.70 36.30 38.47 44.63 49.13 48.46 43.71 45.83 42.01 39.41 43.70 47.91 48.58 47.72 45.12 43.67 40.37 37.30 39.99 38.42 39.12 52.85 52.89 53.59 53.33 54.79 55.11 53.61 53.89
39.33 38.93 47.60 45.65 31.95 31.40 34.56 35.47 37.74 36.82 37.35 37.30 36.56 38.58 38.95 35.61 33.12 37.82 41.59 46.69 48.01 45.84 45.37 45.90 41.87 36.24 39.61 44.07 47.23 46.39 47.74 46.64 44.17 42.40 39.31 37.05 38.45 51.07 53.29 54.47 55.45 54.01 54.89 54.75 53.72
39.84 32.41 38.79 42.43 39.08 35.02 33.11 32.71 32.55 39.39 38.28 38.53 37.59 39.22 36.58 35.64 38.49 36.50 38.96 44.73 46.20 47.09 51.75 50.15 42.12 40.16 37.84 41.47 45.78 44.86 46.92 47.38 44.44 39.22 40.72 42.68 42.87 47.81 51.03 52.29 53.46 53.91 53.78 53.94 53.58
39.56 35.00 38.13 30.59 33.12 34.26 34.56 33.84 31.47 31.47 37.38 38.52 35.71 37.49 36.01 33.02 34.65 35.48 39.11 40.49 44.13 48.42 44.08 45.69 40.83 43.77 44.99 46.58 47.39 47.34 47.27 47.33 45.09 44.60 42.13 43.64 44.44 47.85 49.92 50.67 53.96 54.50 54.08 54.28 53.42
36.61 36.81 38.25 34.57 36.30 34.18 34.07 32.43 32.55 34.47 35.90 34.72 34.97 36.99 38.09 34.87 36.04 34.64 36.59 36.68 37.29 41.42 39.26 42.18 41.40 43.83 42.81 47.23 46.47 46.65 47.88 47.98 47.57 46.70 45.65 45.83 45.22 50.24 53.06 52.36 53.83 54.62 54.65 54.27 54.57
42.90 44.03 39.45 34.71 33.83 33.76 32.83 34.59 34.97 36.60 38.36 39.41 38.52 36.84 36.43 38.33 40.90 41.44 40.63 40.22 40.00 38.15 37.37 38.44 41.99 41.40 38.47 44.41 45.02 41.44 47.28 47.49 47.89 47.71 46.99 43.36 45.51 49.81 50.84 51.74 52.93 54.41 55.11 54.91 55.34
MSLP
1019.48 1019.15 1019.12 1018.84 1018.22 1017.73 1017.45 1017.33 1016.97 1016.65 1016.27 1015.83 1015.74 1015.74 1015.01 1014.54 1013.97 1013.17 1011.87 1009.23 1009.09 1009.22 1009.45 1009.33 1009.90 1009.65 1009.52 1009.41 1009.36 1009.43 1009.71 1008.81 1007.85 1006.93 1005.27 1004.25 1003.66 1002.93 1002.48 1002.79 1003.01 1003.36 1003.93 1004.68 1005.87
1018.91 1018.78 1018.37 1017.84 1017.45 1017.23 1017.09 1016.90 1016.79 1016.59 1016.01 1015.66 1016.16 1015.39 1014.73 1014.44 1014.01 1011.23 1008.55 1007.85 1007.72 1008.57 1009.30 1008.92 1008.96 1009.22 1009.23 1008.53 1008.69 1008.77 1008.67 1007.35 1006.75 1006.02 1004.96 1004.22 1003.62 1003.23 1003.05 1002.87 1003.01 1003.46 1004.13 1004.94 1005.63
1018.46 1018.18 1017.85 1017.57 1017.46 1017.29 1017.03 1016.89 1016.69 1016.16 1016.07 1016.17 1015.70 1015.10 1014.67 1014.41 1012.88 1008.09 1006.68 1006.65 1007.04 1007.88 1008.21 1008.16 1008.33 1008.58 1008.73 1008.34 1007.84 1007.66 1007.11 1006.25 1005.68 1005.04 1004.28 1003.90 1003.44 1003.11 1003.12 1003.06 1002.81 1003.34 1004.28 1004.99 1005.58
1018.65 1018.27 1017.93 1017.60 1017.30 1017.15 1016.92 1016.60 1016.18 1015.98 1016.01 1016.14 1015.46 1015.11 1014.12 1014.06 1011.13 1006.78 1006.24 1006.27 1006.49 1007.13 1007.84 1007.84 1007.88 1008.12 1007.84 1007.59 1006.95 1006.81 1006.25 1005.51 1004.79 1004.23 1003.84 1003.69 1003.07 1002.94 1002.92 1002.58 1002.18 1002.69 1003.56 1004.65 1005.53
1018.88 1018.47 1018.08 1017.71 1017.40 1017.01 1016.67 1016.52 1016.37 1016.22 1016.07 1015.41 1015.22 1014.88 1013.92 1012.57 1009.04 1006.65 1006.32 1006.44 1006.79 1007.32 1007.34 1007.38 1007.59 1007.20 1006.98 1006.43 1006.75 1006.11 1005.37 1004.78 1003.94 1003.40 1003.09 1002.86 1002.81 1002.70 1002.54 1002.13 1002.08 1002.51 1003.23 1004.16 1004.90
1018.67 1018.33 1018.01 1017.55 1017.07 1016.74 1016.51 1016.21 1015.95 1015.79 1015.68 1015.51 1015.05 1014.56 1013.98 1011.14 1007.46 1006.67 1006.38 1006.54 1006.58 1006.96 1006.70 1006.89 1006.62 1006.35 1006.41 1006.17 1005.99 1005.29 1004.71 1003.96 1003.45 1002.87 1002.45 1002.27 1002.28 1002.28 1001.79 1001.41 1001.77 1002.17 1002.83 1003.48 1004.17
1018.22 1017.89 1017.54 1017.17 1016.73 1016.32 1015.89 1015.50 1015.19 1014.94 1014.71 1014.66 1014.42 1014.26 1012.57 1008.35 1006.66 1005.75 1006.28 1005.89 1006.02 1005.88 1005.96 1005.88 1006.03 1006.28 1005.89 1005.91 1005.32 1004.92 1004.38 1003.58 1003.05 1002.46 1001.90 1001.91 1001.89 1001.62 1001.39 1001.17 1001.56 1002.07 1002.34 1002.76 1003.40
1017.87 1017.47 1017.12 1016.75 1016.31 1015.93 1015.34 1014.85 1014.48 1014.08 1013.74 1013.79 1013.71 1013.52 1010.14 1006.90 1006.21 1006.00 1005.20 1005.57 1005.39 1005.26 1004.86 1004.98 1005.12 1005.67 1006.08 1005.78 1005.32 1005.17 1004.46 1003.42 1002.68 1002.20 1001.35 1001.85 1001.09 1000.98 1000.70 1001.05 1001.39 1001.59 1001.77 1002.26 1002.91
1017.42 1017.06 1016.68 1016.32 1015.92 1015.41 1014.96 1014.43 1013.73 1013.01 1012.80 1013.02 1013.15 1012.39 1008.46 1005.51 1005.25 1003.76 1004.26 1004.56 1004.27 1004.46 1004.13 1004.18 1004.81 1005.46 1005.61 1005.79 1005.61 1004.85 1004.08 1003.30 1002.24 1001.62 1001.27 1001.11 1000.33 1000.11 1000.01 1000.55 1001.04 1001.40 1001.56 1001.95 1002.39
1016.94 1016.66 1016.30 1015.88 1015.45 1015.06 1014.53 1013.56 1011.64 1011.95 1011.65 1011.80 1011.60 1011.37 1007.30 1003.68 1002.87 1002.49 1002.94 1003.76 1003.63 1003.72 1003.54 1003.83 1004.46 1004.79 1004.81 1005.00 1003.94 1004.57 1003.93 1003.13 1002.05 1000.67 1000.83 1000.60 1000.06 999.53 999.68 999.99 1000.47 1000.84 1001.03 1001.35 1002.20
1016.57 1016.17 1015.85 1015.55 1015.17 1014.87 1014.37 1012.95 1010.90 1011.15 1010.37 1008.15 1006.92 1005.39 1002.85 1002.37 1001.72 1001.42 1001.76 1002.70 1003.40 1003.24 1003.18 1003.31 1003.82 1002.93 1003.32 1003.64 1003.93 1004.02 1003.49 1002.70 1001.31 1000.34 1000.73 1000.46 1000.31 999.82 999.25 999.71 1000.25 1000.52 1000.79 1000.92 1001.68
1016.32 1015.87 1015.50 1015.19 1014.77 1014.63 1014.74 1013.82 1011.42 1011.13 1009.08 1006.64 1005.38 1004.35 1003.43 1002.46 1001.95 1000.78 1000.81 1001.85 1002.35 1002.14 1003.01 1003.48 1001.29 1002.36 1002.96 1003.06 1003.23 1003.03 1002.81 1002.06 1001.18 1000.25 1000.17 1000.12 999.98 999.49 998.96 999.41 999.37 999.62 999.97 1000.59 1002.11
1015.99 1015.56 1015.24 1014.94 1014.47 1014.01 1013.33 1012.38 1010.36 1010.81 1009.27 1004.58 1003.30 1002.42 1002.52 1002.76 1001.03 1000.31 1000.09 1000.31 1000.63 1001.57 1001.65 1001.31 1000.74 1002.16 1002.16 1001.99 1002.13 1001.89 1001.88 1001.58 1001.36 1000.16 999.62 999.74 999.53 999.22 998.70 998.50 998.65 998.75 998.84 1000.39 1001.65
1015.81 1015.33 1014.91 1014.70 1014.61 1013.22 1011.70 1010.52 1009.62 1009.81 1008.52 1002.30 1000.28 998.57 1000.16 1001.43 999.48 999.08 998.86 999.44 999.69 1000.05 1000.98 1000.50 1000.95 1000.72 1000.87 1000.77 1001.15 1000.86 1000.67 1000.92 1000.73 1000.61 1000.61 999.70 1000.20 999.91 999.27 998.94 998.59 998.39 999.05 1000.31 1001.56
1015.33 1014.98 1014.67 1014.67 1014.30 1013.25 1011.18 1010.52 1008.98 1008.54 1006.90 998.73 996.35 995.34 996.15 997.22 996.48 996.38 997.42 998.18 998.23 998.89 999.96 998.38 999.12 999.43 999.31 999.24 999.75 999.43 999.72 999.94 1000.12 1000.54 1000.73 1000.21 1000.78 999.69 999.34 999.16 998.59 998.54 999.14 1000.01 1001.04
1014.80 1014.46 1014.25 1014.10 1013.92 1012.65 1011.69 1010.84 1009.72 1008.90 1003.88 997.39 994.00 994.20 995.62 996.05 995.69 995.14 996.02 997.54 997.91 998.30 998.22 998.21 998.33 998.35 998.18 998.46 998.51 998.59 999.12 999.49 999.99 1000.57 1000.82 1000.72 1000.83 999.58 999.43 998.65 998.28 998.10 998.67 1000.01 1001.31
1014.26 1013.88 1013.84 1013.39 1012.73 1011.89 1011.65 1011.39 1010.45 1007.02 1001.41 997.23 995.75 994.88 995.19 995.56 996.43 995.76 996.43 996.82 996.44 997.28 996.79 997.52 996.89 997.04 996.91 997.28 997.47 997.89 998.76 999.91 1000.59 1000.88 1000.73 1000.49 1000.57 999.33 998.10 997.82 997.67 998.49 999.38 1000.47 1001.52
1013.73 1013.39 1012.88 1012.49 1012.41 1012.09 1012.10 1011.97 1009.26 1005.04 1003.27 997.99 999.12 997.20 996.79 995.30 995.34 995.54 995.98 996.18 996.30 995.92 996.50 996.44 996.13 995.34 994.90 995.08 995.83 996.76 997.86 999.00 1000.43 1000.96 1000.88 1000.24 999.76 997.97 997.22 997.24 997.40 998.30 999.42 1000.64 1001.70
1013.22 1012.61 1011.91 1011.51 1011.68 1012.00 1012.57 1011.20 1007.95 1005.88 1003.51 1001.39 1000.95 999.35 997.29 996.74 996.17 995.41 995.40 994.80 994.64 994.96 995.39 995.22 994.29 993.42 993.90 994.23 994.99 995.60 996.20 997.33 999.36 1000.25 1000.91 1000.19 998.58 996.91 996.83 997.28 997.95 998.88 999.81 1001.04 1001.92
1012.94 1012.19 1010.89 1010.30 1010.91 1011.87 1012.19 1009.70 1007.81 1006.51 1005.10 1004.35 1003.65 1002.18 1000.90 1000.02 999.06 997.50 994.99 993.73 994.01 994.53 995.00 994.13 994.56 993.35 992.97 993.73 993.71 994.12 995.21 996.94 998.65 1000.59 1001.03 1000.15 999.04 997.95 997.44 997.60 998.43 999.51 1000.37 1001.31 1002.03
1012.83 1012.02 1010.15 1009.72 1010.75 1011.85 1011.18 1009.93 1008.21 1007.27 1006.75 1005.94 1005.01 1004.09 1002.94 1002.32 1000.82 999.65 996.17 993.85 992.85 993.09 994.11 994.56 994.27 992.92 993.25 992.44 992.54 993.34 994.63 995.87 997.85 999.49 1000.40 1000.48 999.03 996.73 997.16 997.63 998.42 999.44 1000.08 1000.98 1001.81
1013.12 1012.31 1010.03 1009.89 1011.25 1011.58 1010.98 1009.87 1008.37 1007.55 1006.64 1006.12 1005.56 1004.79 1004.11 1003.40 1001.95 1000.59 997.58 995.74 993.36 992.53 993.16 993.00 993.79 993.61 992.22 991.45 991.73 992.74 993.80 995.26 997.25 998.92 999.63 999.71 998.69 996.78 996.93 997.29 997.94 999.07 999.94 1000.69 1001.51
1013.09 1011.61 1010.19 1010.45 1011.32 1011.27 1010.83 1009.54 1008.25 1007.50 1006.58 1006.37 1005.53 1004.85 1004.33 1004.57 1003.84 1000.89 998.31 996.51 995.46 994.71 991.83 992.90 993.62 993.76 992.42 991.85 991.31 991.84 992.40 994.11 995.79 997.47 998.50 998.85 998.27 996.81 996.70 997.18 997.67 998.62 999.52 1000.43 1001.49
1013.33 1012.00 1010.78 1011.16 1011.16 1011.13 1010.34 1008.95 1007.97 1006.83 1006.29 1006.14 1005.59 1004.99 1004.47 1004.17 1003.86 1001.58 999.79 997.30 996.62 995.46 993.28 992.08 992.52 992.80 991.98 990.76 990.56 991.10 991.88 993.19 994.88 996.13 997.05 997.16 997.03 996.88 996.80 997.15 997.76 998.38 999.20 999.98 1000.89
1013.34 1012.14 1011.28 1010.92 1010.69 1010.42 1009.98 1009.16 1007.94 1006.90 1006.09 1005.53 1005.47 1004.15 1003.97 1004.02 1003.76 1002.87 1001.54 999.34 997.55 995.76 994.68 993.13 992.16 992.22 991.89 990.95 990.40 990.13 990.87 992.02 993.07 994.71 995.48 995.94 996.02 995.95 995.88 996.07 996.74 997.48 998.50 999.57 1000.38
1013.51 1012.67 1011.89 1011.61 1010.53 1009.97 1009.34 1008.31 1007.39 1006.30 1005.22 1004.70 1004.80 1004.21 1003.77 1003.58 1003.90 1003.41 1002.85 1001.81 1000.11 997.11 997.07 994.82 992.52 992.02 991.39 990.48 990.21 989.93 989.72 990.64 991.71 993.07 993.98 994.52 994.91 994.96 994.94 994.99 995.85 996.82 997.75 998.68 999.35
1013.13 1012.63 1012.42 1011.64 1010.78 1010.18 1009.08 1008.22 1007.23 1006.26 1005.08 1004.18 1003.53 1003.59 1003.07 1003.23 1003.79 1003.49 1003.04 1002.06 1000.89 999.85 998.65 996.85 993.69 992.37 991.52 990.91 990.35 989.71 989.06 989.37 990.44 991.60 992.42 993.32 993.73 993.92 994.51 994.64 995.18 995.84 996.70 997.53 998.20
Wind_Speed
12 12 12 12 11 12 14 14 15 15 15 14 17 17 17 16 19 5 11 13 11 14 1 6 9 13 10 9 12 13 5 13 17 16 18 10 7 7 6 4 3 8 8 10 12
14 14 14 14 14 14 15 16 16 17 17 16 17 17 17 16 6 14 14 20 19 15 8 12 14 12 10 9 11 11 8 21 16 18 18 10 8 8 7 9 6 5 9 14 14
17 16 15 15 15 13 13 15 16 17 17 17 18 19 18 15 5 9 2 17 18 19 17 13 12 14 15 15 18 16 17 18 17 22 19 14 8 8 11 7 3 10 11 11 7
17 18 18 16 16 14 13 15 16 17 18 18 18 18 21 4 7 2 1 2 15 15 14 13 15 13 18 20 20 18 21 22 22 22 18 10 7 9 14 9 5 8 15 10 9
15 15 16 16 16 15 15 15 16 16 17 17 17 17 10 7 14 10 5 5 7 12 18 16 14 17 20 21 17 22 23 22 23 22 10 7 9 15 19 7 1 10 11 12 11
13 15 15 15 15 15 15 15 15 15 15 16 15 15 5 17 12 17 18 6 9 11 16 14 13 19 12 18 22 21 19 21 23 20 8 10 17 17 12 6 6 8 9 10 11
16 15 15 16 16 16 15 16 16 18 19 17 14 8 11 23 8 12 12 7 8 13 15 18 19 15 8 15 15 17 22 24 21 14 14 14 18 16 10 8 10 10 10 10 10
15 16 17 17 17 17 18 18 19 21 22 18 14 7 12 9 19 24 29 20 19 18 19 17 17 18 15 9 15 17 18 19 12 11 20 13 21 15 11 9 10 11 10 9 11
16 16 17 18 18 19 19 19 24 26 23 15 6 6 12 11 16 26 19 20 12 16 18 16 13 12 8 18 13 11 15 16 17 18 22 12 19 16 12 9 9 11 8 9 9
16 15 16 18 19 18 18 24 26 20 12 10 10 6 10 12 11 18 18 18 11 12 15 18 12 17 14 10 18 13 11 14 19 23 18 14 14 10 11 11 12 9 10 9 9
19 16 16 16 18 18 13 10 2 3 7 12 16 14 12 16 8 12 14 16 17 11 14 12 9 20 23 22 13 14 14 20 24 21 21 4 22 13 10 8 8 10 9 10 10
20 19 16 17 19 16 7 5 13 5 13 20 27 26 25 20 15 17 16 17 15 21 16 13 27 21 19 16 19 18 19 24 23 20 5 19 22 15 9 7 9 11 10 6 11
18 18 16 15 17 11 8 14 13 13 9 15 24 29 21 19 26 25 16 20 19 22 21 27 12 19 20 18 19 21 20 21 19 21 17 5 7 6 5 4 7 10 8 16 22
17 17 15 11 9 7 11 13 18 11 7 11 14 16 21 14 23 27 28 16 14 25 23 22 18 19 23 23 22 21 19 22 22 17 8 0 6 4 6 10 10 11 10 16 19
17 16 14 6 8 6 11 18 20 7 7 9 16 13 18 30 13 20 29 21 22 21 22 20 25 25 24 24 24 21 16 20 22 16 6 5 2 6 4 9 14 5 12 16 18
18 16 13 6 5 14 14 17 7 3 14 10 6 17 17 27 18 3 29 25 16 19 24 21 14 22 29 24 26 24 16 17 16 8 3 6 7 9 6 7 6 4 7 15 15
20 16 9 7 6 10 9 7 3 10 11 7 5 14 21 18 25 18 23 27 25 21 25 22 27 24 21 23 23 20 14 9 3 1 7 5 4 11 10 8 7 10 13 13 15
17 11 7 9 9 10 2 3 12 13 25 27 25 25 14 12 22 29 14 25 25 23 10 16 15 29 25 28 20 18 15 8 8 5 5 7 8 18 16 10 10 14 14 14 14
16 5 6 8 8 6 2 10 10 16 17 18 30 20 9 21 14 26 27 28 29 28 18 19 19 14 27 20 23 16 14 13 5 1 2 5 8 3 9 8 11 16 16 13 13
3 4 8 7 9 3 4 12 12 13 18 20 20 17 23 23 17 18 15 28 27 30 20 8 3 21 21 18 20 25 6 7 1 8 5 5 7 6 8 9 12 13 12 10 10
2 4 3 4 6 2 5 7 13 17 21 21 21 22 22 21 18 18 13 13 27 27 31 17 5 9 19 23 25 13 10 5 8 7 6 2 8 9 7 14 14 14 13 14 14
1 3 4 6 2 2 2 7 7 17 19 19 19 18 17 19 21 18 15 11 13 20 32 28 6 11 16 17 23 15 10 8 10 5 6 6 7 8 13 12 13 15 13 11 12
3 4 1 6 2 2 9 17 17 18 17 17 20 20 12 16 10 12 12 21 19 20 26 22 20 4 8 9 13 15 15 10 7 7 9 6 7 6 9 11 15 15 13 12 10
3 4 1 2 4 5 9 9 12 10 11 11 13 19 10 15 16 16 26 19 28 21 25 25 12 20 10 8 13 21 19 17 10 6 8 9 7 4 9 12 10 13 13 14 12
2 4 4 3 5 7 6 9 16 12 14 12 10 14 9 10 16 19 20 27 21 11 18 5 25 12 21 24 10 23 22 20 18 12 13 8 7 11 12 11 19 16 16 15 13
2 3 5 9 9 9 8 8 15 17 12 11 12 16 17 13 12 21 16 15 13 13 20 11 13 21 20 19 22 17 26 21 19 13 9 11 10 10 8 9 13 20 19 18 16
3 4 3 5 6 6 4 8 14 13 13 11 12 10 9 5 3 12 12 17 20 20 17 10 5 14 22 18 10 18 21 24 21 10 14 15 7 5 6 11 14 20 20 21 18
Wind_Direction
329 333 333 333 337 340 339 336 334 332 331 332 327 319 320 321 308 212 235 220 196 196 154 169 216 234 248 218 226 249 250 262 267 274 278 317 355 328 335 141 203 177 152 154 155
323 321 325 333 337 340 336 335 332 328 330 331 316 320 321 326 278 249 235 211 231 169 199 201 204 215 230 241 225 227 234 249 259 269 279 300 331 329 353 312 261 97 90 136 152
317 317 318 321 323 323 325 327 325 327 324 320 322 325 317 319 279 245 228 224 218 173 211 225 225 204 230 240 238 239 240 251 254 259 274 287 324 309 305 297 302 162 155 160 149
325 313 311 310 309 309 309 313 319 320 316 314 322 323 316 268 238 170 47 99 190 186 209 221 238 232 229 235 237 245 245 249 255 258 254 262 293 294 278 250 248 147 163 156 166
324 322 315 307 300 299 301 301 306 308 307 314 319 322 338 229 234 257 84 81 136 191 213 220 228 237 235 234 243 242 246 253 260 266 250 272 263 262 269 266 139 147 145 171 178
319 316 318 318 307 297 295 298 299 295 295 304 312 320 217 242 260 258 269 211 191 196 214 216 226 234 271 236 240 248 257 255 256 267 251 259 265 262 251 248 201 157 163 171 179
325 321 316 317 317 315 305 298 295 291 294 300 305 287 251 236 260 296 306 272 219 194 211 223 230 241 236 268 259 265 268 272 270 267 266 252 253 256 250 220 213 197 203 204 195
319 318 324 317 314 310 307 301 295 289 287 292 296 269 253 261 235 246 256 272 263 247 200 223 221 235 247 272 283 279 273 263 256 269 267 252 259 244 233 217 236 225 218 189 196
320 319 315 321 317 314 307 300 289 281 281 282 263 207 267 250 230 234 220 225 239 255 205 216 221 214 231 233 259 254 258 262 268 246 262 242 253 256 201 213 248 227 218 212 204
312 311 314 314 317 316 313 300 277 277 265 227 235 233 255 234 231 222 218 231 220 241 223 222 226 230 239 225 227 233 255 252 258 257 255 265 309 201 204 201 227 239 218 216 150
320 306 307 310 310 319 328 324 263 164 228 205 190 212 270 211 297 221 195 200 221 235 227 201 216 225 220 228 230 238 242 246 254 254 248 347 269 253 208 218 225 235 234 230 163
320 317 299 304 307 309 303 257 275 356 288 243 242 232 248 281 291 285 189 191 196 219 212 226 229 221 235 224 240 226 246 260 273 277 228 209 248 249 206 215 218 228 245 207 120
317 313 299 299 307 298 215 233 259 289 265 257 239 236 229 238 251 253 240 208 194 211 208 218 226 220 234 226 234 238 230 250 259 277 285 284 321 314 266 249 275 250 220 137 145
307 305 303 307 295 290 276 326 317 192 278 263 218 244 215 209 257 228 244 210 209 208 212 236 221 221 215 229 225 239 222 236 250 261 259 353 281 302 301 298 295 275 129 143 151
305 304 295 238 305 314 308 316 314 155 273 218 213 181 190 190 140 203 218 221 213 206 202 209 208 214 226 215 227 240 221 229 240 248 238 284 292 252 269 289 291 187 150 155 157
305 299 291 257 217 249 285 311 304 220 246 268 151 181 160 205 220 66 186 215 208 218 224 222 229 211 227 230 221 229 232 239 240 228 237 221 176 270 232 233 212 142 143 147 138
310 298 279 253 258 300 315 318 243 223 280 248 350 174 186 189 209 239 183 202 207 198 216 219 221 230 230 220 231 217 219 239 300 245 219 217 281 246 264 228 171 131 117 126 131
311 295 249 229 243 265 335 250 222 237 251 293 325 325 297 178 205 211 208 205 211 213 169 208 221 212 214 222 218 222 201 196 207 181 244 252 243 250 235 206 119 137 128 122 128
307 261 245 231 228 243 118 225 226 242 282 304 332 313 341 351 325 200 218 206 210 209 208 193 227 185 217 219 213 231 207 188 164 257 190 235 277 20 144 138 120 129 129 133 135
290 289 260 217 202 189 199 244 249 263 280 305 318 309 323 330 329 354 218 217 211 211 219 255 215 230 207 213 240 211 178 148 65 197 247 294 299 233 156 178 115 128 132 136 137
286 304 268 225 125 173 237 251 279 264 276 292 306 311 311 318 306 315 268 298 206 201 208 219 216 240 209 204 214 219 200 140 131 145 166 223 270 210 161 136 133 143 146 148 150
5 287 282 136 150 205 229 241 254 296 296 298 287 284 288 317 313 301 264 255 295 193 202 210 200 233 232 210 203 211 170 148 173 214 204 175 266 133 147 150 136 146 148 146 150
280 259 33 87 260 186 265 273 265 269 288 305 296 296 308 299 301 291 291 324 340 336 203 196 226 290 244 280 208 195 182 178 136 137 202 161 245 211 130 134 141 143 151 145 143
299 315 259 153 178 209 275 282 286 271 276 292 304 289 258 276 267 287 309 310 332 326 329 180 195 212 226 207 194 191 181 191 165 168 173 208 230 177 142 152 147 151 147 151 153
262 271 301 305 321 308 276 277 292 281 275 270 310 312 248 273 293 283 307 317 325 331 348 294 203 191 223 248 254 190 186 181 202 186 184 193 197 185 171 168 163 161 152 155 154
273 323 348 300 299 312 298 261 274 288 279 286 243 252 273 231 268 294 311 322 295 329 348 320 224 197 228 227 238 225 187 190 206 190 191 169 216 183 207 183 142 160 162 163 167
296 316 269 284 290 305 263 316 296 291 293 277 307 331 319 278 13 281 277 266 269 285 303 278 318 184 217 226 243 237 203 194 202 196 179 197 176 239 164 193 156 164 165 169 174